Terug naar catalogus

THORAD AGENA D DEB

ActiefPO
NORAD 4754·DEBRIS·🇺🇸 United States

Gelanceerd Apr 8, 1970 vanaf Vandenberg Space Force Base

Loading…

Volgende Passages

TLE

Source: Space-Track
1  4754U 70025DC  26224.20796053  .00002724  00000-0  93325-3 0  9992
2  4754  99.5897 194.0515 0014790  99.5716 260.7139 14.37105707841851

Volg THORAD AGENA D DEB in realtime met AllMySat

Download on the App Store